GFSWCAN_prec_snow_270.txt.gz
Snowfall_Accumulation
0.0 0.0 0.0 0.0 0.0 0.0 0.0 0.0 0.0 0.0 0.0 0.0 0.0 0.0 0.0 0.0 0.0 0.0 0.0 0.0 0.5 26.8 10.9 0.1 0.0 3.8 8.1 9.6 18.8 13.2 18.1 16.4 25.1 34.1 26.5 20.5 13.0 5.3 6.1 5.1 3.1 4.5 16.5 20.6 23.5 25.6 14.4 0.4 0.1 1.5 1.1 0.2 1.1 7.5
0.0 0.0 0.0 0.0 0.0 0.0 0.0 0.0 0.0 0.0 0.0 0.0 0.0 0.0 0.0 0.0 0.0 0.0 2.0 0.0 0.0 22.7 17.1 0.0 0.0 0.0 0.0 0.0 7.9 14.3 18.0 11.4 13.6 25.4 20.4 17.5 17.1 13.2 4.1 8.4 6.2 9.5 6.5 14.2 14.6 14.2 2.0 0.3 0.6 0.4 0.4 0.5 2.9 7.5
0.0 0.0 0.0 0.0 0.0 0.0 0.0 0.0 0.0 0.0 0.0 0.0 0.0 0.0 0.0 0.0 0.0 0.0 0.0 0.0 0.0 30.1 12.5 3.7 6.4 0.0 0.0 0.0 0.0 17.1 6.4 3.6 11.2 9.6 18.3 13.7 15.5 6.8 9.8 7.6 7.6 5.7 2.9 9.4 4.3 1.2 1.3 0.6 0.0 0.0 0.2 0.2 0.4 4.5
0.0 0.0 0.0 0.0 0.0 0.0 0.0 0.0 0.0 0.0 0.0 0.0 0.0 0.0 0.0 0.0 0.0 0.0 0.0 0.0 3.4 18.8 31.8 9.9 0.0 3.2 0.0 0.0 0.0 0.0 0.0 0.0 1.3 3.0 22.5 19.4 14.1 3.7 4.2 3.5 6.1 9.8 8.4 7.4 4.4 1.0 0.9 0.3 0.3 0.2 0.2 0.2 0.5 0.3
0.0 0.0 0.0 0.0 0.0 0.0 0.0 0.0 0.0 0.0 0.0 0.0 0.0 0.0 0.0 0.0 0.0 0.0 0.0 0.0 0.0 7.3 20.6 11.4 0.0 0.0 2.7 0.0 0.0 0.0 0.0 2.1 6.7 17.6 24.7 15.0 4.7 7.0 3.8 5.6 7.8 3.2 11.4 11.1 9.5 2.4 3.7 0.7 0.7 0.4 0.8 1.0 1.7 1.2
0.0 0.0 0.0 0.0 0.0 0.0 0.0 0.0 0.0 0.0 0.0 0.0 0.0 0.0 0.0 0.0 0.0 0.0 51.3 0.0 0.0 0.0 22.0 17.2 2.4 2.3 4.9 2.0 0.6 0.7 1.3 3.7 6.5 14.5 13.8 4.9 0.4 7.5 12.8 7.5 1.0 1.7 6.5 8.5 11.2 4.8 3.6 3.7 2.2 0.9 2.2 3.4 4.4 2.7
0.0 0.0 0.0 0.0 0.0 0.0 0.0 0.0 0.0 0.0 0.0 0.0 0.0 0.0 0.0 0.0 0.0 27.6 22.4 2.7 0.0 0.0 35.2 20.1 12.3 1.8 3.1 3.4 3.6 6.0 3.2 9.3 8.4 10.9 8.7 4.0 3.9 8.8 9.5 1.5 0.2 0.0 2.1 4.7 6.7 8.8 8.4 9.4 11.2 7.0 2.6 2.8 3.3 1.5
0.0 0.0 0.0 0.0 0.0 0.0 0.0 0.0 0.0 0.0 0.0 0.0 0.0 0.0 0.0 0.0 0.0 10.7 0.0 0.0 0.0 2.9 17.0 21.5 14.6 15.3 1.7 7.4 10.9 3.8 12.7 11.6 12.8 9.7 5.4 3.4 4.0 7.3 9.9 0.0 0.0 0.1 0.3 0.8 0.8 1.3 3.9 5.0 5.1 4.5 1.8 0.6 0.1 0.0
0.0 0.0 0.0 0.0 0.0 0.0 0.0 0.0 0.0 0.0 0.0 0.0 0.0 0.0 0.0 0.0 37.5 0.0 0.0 0.0 0.0 3.7 24.9 11.8 10.6 20.0 2.0 7.4 7.4 8.8 6.5 20.7 8.8 14.9 6.2 5.4 6.9 9.3 1.3 0.2 0.7 0.1 0.1 0.0 0.0 0.0 0.2 1.0 0.2 0.0 0.3 0.1 1.1 1.1
0.0 0.0 0.0 0.0 0.0 0.0 0.0 0.0 0.0 0.0 0.0 0.0 0.0 43.8 60.5 4.8 0.0 0.0 7.2 24.4 29.5 24.6 15.1 10.8 1.3 11.1 2.6 5.6 16.4 15.9 16.1 13.1 16.1 5.3 2.4 8.6 4.0 1.2 0.9 0.7 0.3 0.4 0.1 0.1 0.8 1.2 0.9 0.8 0.3 0.1 0.0 1.0 0.2 0.1
0.0 0.0 0.0 0.0 0.0 0.0 0.0 0.0 0.0 0.0 0.0 0.0 30.2 27.8 0.0 0.0 0.3 14.6 34.7 26.5 18.6 16.2 3.6 1.8 0.1 2.5 0.3 8.2 13.1 8.4 18.9 11.5 15.6 5.6 4.9 7.6 5.0 5.3 4.5 4.3 2.4 1.8 0.6 0.5 0.4 0.3 0.0 0.1 2.3 1.8 0.8 0.2 0.0 0.1
0.0 0.0 0.0 0.0 0.0 0.0 0.0 0.0 0.0 0.0 0.0 0.0 0.1 0.0 0.4 13.0 27.0 28.0 23.6 14.1 4.1 2.8 4.3 2.8 7.0 8.1 4.5 1.3 16.3 21.7 15.1 15.3 8.4 5.2 14.2 8.4 6.9 3.3 2.2 3.9 1.6 0.0 0.0 0.0 0.0 0.0 0.0 0.0 0.0 0.2 0.9 0.7 1.0 3.9
0.0 0.0 0.0 0.0 0.0 0.0 0.0 0.0 0.0 0.0 0.0 0.1 12.7 18.6 22.4 22.7 28.9 19.9 9.9 6.4 4.8 2.4 3.1 2.6 11.6 5.5 9.9 4.9 19.8 19.2 24.0 13.3 5.4 24.5 12.9 8.3 4.6 5.2 3.9 1.1 0.2 0.6 0.3 0.0 0.3 0.1 0.0 0.0 0.9 2.0 3.1 7.0 6.5 6.1
0.0 0.0 0.0 0.0 0.0 0.0 0.2 0.0 0.0 0.0 1.8 10.8 20.1 24.8 20.2 14.7 10.6 7.0 4.2 3.4 3.1 2.5 3.7 5.5 10.0 12.4 7.0 12.8 13.9 20.6 15.4 14.0 17.8 12.8 9.3 11.0 9.1 5.3 4.3 3.9 3.8 3.1 2.4 2.5 0.8 0.7 2.2 1.8 3.2 4.7 4.8 7.8 7.0 7.0
0.2 0.1 0.0 0.0 0.0 0.0 0.0 0.0 0.0 0.0 12.7 19.1 11.7 11.6 8.7 8.8 5.5 4.0 2.7 1.8 2.0 3.6 8.1 11.2 12.2 11.8 15.7 21.6 9.5 9.0 14.3 13.2 10.3 13.2 14.0 12.3 8.7 6.9 6.1 7.2 7.7 9.8 10.2 9.5 11.8 12.4 11.5 9.7 7.9 10.7 10.9 9.9 8.0 8.6
0.3 0.2 0.0 0.0 0.0 0.0 0.0 0.0 3.1 10.0 18.8 11.0 9.7 8.8 7.0 5.1 6.9 5.8 5.0 4.6 2.5 4.4 8.7 13.8 17.9 15.7 14.7 12.7 11.5 11.2 12.0 14.0 15.9 14.0 11.4 6.6 5.5 6.0 7.0 7.8 8.7 10.0 11.3 11.5 11.4 12.9 14.4 15.4 15.6 16.7 16.6 14.5 13.5 11.6
1.1 1.7 0.0 0.1 0.0 2.0 3.9 7.8 8.2 22.0 15.3 8.5 10.2 7.5 7.8 9.4 6.8 6.5 7.4 7.9 5.1 12.1 16.5 16.0 18.9 12.2 9.1 8.8 7.9 9.5 14.6 16.3 11.0 8.7 6.5 5.4 7.4 6.6 7.0 6.5 7.2 7.5 9.8 10.7 11.0 12.1 13.3 14.7 14.1 12.4 12.8 14.7 12.6 12.3
1.1 0.1 0.3 0.1 0.4 8.1 10.8 4.7 14.6 10.8 9.4 7.6 10.1 10.9 7.5 8.6 9.6 8.7 7.3 7.3 8.6 10.0 9.5 15.6 8.4 6.5 7.6 7.3 11.6 15.2 15.5 11.8 7.4 6.6 7.5 8.4 8.2 8.9 7.5 5.9 7.1 7.3 8.3 10.7 10.1 11.3 11.3 9.5 8.0 9.8 10.1 10.9 9.8 10.3
1.4 0.6 0.0 0.3 2.1 12.2 17.8 10.2 6.0 8.5 7.7 7.5 8.4 7.9 6.7 9.8 12.1 9.6 9.2 8.3 6.5 6.0 10.9 8.1 9.0 5.6 8.2 10.3 13.1 10.8 9.1 8.1 9.2 10.1 10.9 11.1 10.4 8.9 8.1 7.5 6.8 9.3 9.1 10.7 9.6 8.7 9.7 9.0 7.5 7.4 8.0 7.7 6.8 8.3
0.0 0.7 0.0 0.8 4.0 25.4 17.9 9.5 2.0 4.1 5.9 6.3 6.4 6.3 6.3 10.0 9.7 8.2 6.2 5.1 5.5 9.2 10.2 9.4 9.3 11.2 12.7 13.2 14.4 13.1 10.9 9.2 6.9 7.6 10.1 12.5 13.6 10.0 9.7 9.7 9.9 9.5 8.5 8.7 9.3 9.4 9.0 8.8 8.5 5.3 4.6 6.3 6.9 6.7
1.0 0.0 0.2 1.9 7.6 16.8 12.6 7.1 7.9 3.1 4.5 5.2 5.4 2.5 7.0 3.8 4.6 4.6 3.8 1.7 4.7 8.3 8.9 11.0 12.8 12.5 12.7 14.2 12.6 9.7 9.1 7.2 8.0 6.8 7.5 9.1 10.9 7.8 8.5 9.1 7.3 6.3 4.7 6.1 6.6 9.3 8.0 6.6 6.4 5.6 4.4 3.8 4.7 5.4
1.3 1.1 5.0 4.8 16.3 15.4 13.6 3.9 3.0 4.7 4.5 4.2 3.5 3.2 4.7 5.1 3.2 3.8 1.9 3.9 8.3 12.0 11.1 11.2 11.1 10.3 9.1 10.0 11.4 10.1 11.4 7.3 6.6 6.6 7.3 6.0 7.4 6.8 7.7 8.7 5.9 5.4 4.7 4.9 4.7 6.2 5.7 4.4 4.0 4.0 3.8 2.9 2.1 2.9
2.9 5.1 13.2 10.8 12.6 9.1 4.0 1.9 4.5 5.5 5.8 5.5 3.8 3.7 4.2 3.5 3.3 0.9 4.5 6.7 11.0 13.0 11.0 8.8 9.5 9.8 9.7 11.1 8.4 7.9 9.5 7.6 8.7 10.5 9.9 9.0 8.3 7.8 6.6 7.0 5.9 4.9 5.2 5.6 3.8 4.0 3.4 2.9 2.6 3.1 3.1 2.9 2.6 2.6
4.0 12.5 13.0 11.3 8.6 4.5 2.4 3.2 4.1 4.4 4.3 3.8 4.3 3.6 4.4 3.1 0.2 4.4 6.5 9.2 11.1 7.5 6.6 7.8 7.2 8.7 9.1 7.7 8.7 9.0 11.2 7.8 8.4 9.9 10.4 7.5 6.3 7.4 5.5 5.7 3.9 3.9 3.9 3.8 2.7 2.9 2.9 2.6 1.7 2.0 2.2 3.1 2.4 2.3
23.9 12.5 7.8 6.6 5.2 4.9 3.4 1.6 1.8 3.9 5.9 4.8 7.0 7.3 8.3 5.0 7.8 7.1 8.0 10.8 7.3 6.6 6.4 7.0 6.8 6.9 6.5 8.0 8.7 9.1 8.8 9.0 9.8 9.6 11.0 9.2 7.6 6.6 5.8 4.8 4.4 4.6 3.2 3.1 4.1 4.1 3.5 2.9 3.0 2.2 1.3 0.9 1.1 2.1
11.0 4.2 6.3 4.8 5.3 5.5 5.9 4.7 4.6 3.7 3.8 3.8 5.1 3.1 2.6 4.6 5.4 9.9 10.4 11.0 8.1 8.2 8.5 8.5 8.4 6.0 6.3 7.1 6.7 5.2 6.6 7.4 7.6 6.8 9.9 8.3 8.8 9.6 8.1 6.6 5.6 5.2 3.1 3.1 4.1 3.7 2.9 2.7 2.5 2.4 2.6 1.4 1.3 2.5
7.7 3.0 1.2 0.6 1.5 2.1 2.8 3.0 3.0 3.7 4.3 5.5 4.5 3.8 4.0 6.6 7.2 7.9 7.1 7.2 7.4 8.4 7.0 7.2 6.3 7.0 7.2 6.8 6.1 5.8 5.1 4.6 5.2 6.9 7.7 7.2 7.1 8.2 8.9 10.0 9.1 7.8 4.6 4.0 3.3 3.5 4.1 3.4 3.2 3.0 3.1 2.9 2.5 3.1
2.8 1.3 1.8 1.4 2.0 1.8 2.8 2.4 3.5 4.5 3.9 3.2 4.3 4.3 6.0 5.6 7.4 8.0 7.4 7.6 6.0 4.9 3.9 3.4 3.0 3.4 3.8 4.3 4.6 4.2 3.7 4.4 4.6 4.3 3.8 3.8 5.0 7.0 6.7 6.4 5.2 4.3 4.7 4.7 4.9 4.2 4.0 4.0 3.6 3.7 3.6 3.5 3.4 2.7
2.4 1.8 2.5 3.2 2.4 2.7 4.7 4.6 4.9 3.4 2.9 3.1 3.9 4.2 5.0 5.0 7.7 7.2 6.6 5.0 4.6 4.0 3.2 2.4 2.6 1.2 1.2 1.0 1.0 1.9 3.1 3.8 3.4 4.1 3.3 4.2 5.6 5.0 4.6 4.4 3.8 4.1 4.4 4.9 4.7 4.8 5.0 4.0 3.2 3.1 3.6 5.1 4.1 3.8
1.5 1.7 2.1 2.3 2.3 2.9 5.0 2.6 3.5 2.5 1.2 1.2 1.0 1.4 1.8 5.5 9.2 7.2 4.9 3.5 3.2 3.5 3.4 2.8 2.2 1.8 1.8 1.6 1.3 1.4 2.7 3.1 3.3 4.2 4.1 3.4 4.2 4.0 3.8 3.7 3.6 3.2 4.1 4.5 5.9 5.6 6.1 5.9 5.6 5.6 5.5 4.8 4.8 6.0
0.6 1.0 1.1 2.0 2.8 4.0 2.9 2.2 2.1 1.7 1.1 0.8 0.5 1.2 2.5 4.0 5.5 3.7 2.9 3.5 2.4 1.7 1.6 1.7 1.8 2.1 1.8 2.1 3.0 3.1 3.1 2.0 1.9 2.5 2.7 3.4 3.0 3.1 3.0 2.6 3.1 3.3 3.6 4.1 3.9 5.2 6.7 7.3 7.3 7.7 6.7 5.6 4.8 5.2
0.7 1.8 1.6 1.2 2.0 2.0 3.1 4.6 3.1 2.0 1.8 1.7 2.5 1.8 3.2 3.3 3.3 3.7 2.7 2.6 2.3 1.7 1.6 2.1 2.2 2.6 3.0 4.0 4.1 4.2 3.8 2.9 2.3 2.5 2.3 2.4 2.9 3.1 2.8 1.9 2.0 2.4 2.5 3.0 3.2 4.2 5.1 6.5 8.2 7.4 6.4 6.3 6.3 5.5
1.4 1.7 1.4 2.1 2.1 2.4 1.9 3.2 1.4 1.8 1.9 2.7 3.7 2.7 2.8 2.8 4.9 5.6 2.4 2.5 4.7 3.8 3.4 4.0 4.2 4.1 4.4 4.4 4.6 3.7 2.5 2.9 2.5 2.3 2.2 2.3 2.2 2.2 2.1 2.0 2.2 2.3 2.3 2.4 2.8 3.3 3.5 4.5 5.2 6.7 7.3 7.4 8.0 7.6

GFSWCAN_prec_snow_276.txt.gz
Snowfall_Accumulation
0.0 0.0 0.0 0.0 0.0 0.0 0.0 0.0 0.0 0.0 0.0 0.0 0.0 0.0 0.0 0.0 0.0 0.0 0.0 0.0 0.5 26.8 10.9 0.1 0.0 3.8 8.1 9.6 18.8 13.2 18.1 16.4 25.1 34.1 26.5 20.5 13.0 5.3 6.1 5.1 3.1 4.5 16.5 20.6 23.5 25.6 14.4 0.4 0.1 1.5 1.1 0.2 1.1 7.5
0.0 0.0 0.0 0.0 0.0 0.0 0.0 0.0 0.0 0.0 0.0 0.0 0.0 0.0 0.0 0.0 0.0 0.0 2.0 0.0 0.0 22.7 17.1 0.0 0.0 0.0 0.0 0.0 7.9 14.3 18.0 11.4 13.6 25.4 20.4 17.5 17.1 13.2 4.1 8.4 6.2 9.5 6.5 14.2 14.6 14.2 2.0 0.3 0.6 0.4 0.4 0.5 2.9 7.5
0.0 0.0 0.0 0.0 0.0 0.0 0.0 0.0 0.0 0.0 0.0 0.0 0.0 0.0 0.0 0.0 0.0 0.0 0.0 0.0 0.0 30.1 12.5 3.7 6.4 0.0 0.0 0.0 0.0 17.1 6.4 3.6 11.2 9.6 18.3 13.7 15.5 6.8 9.8 7.6 7.6 5.7 2.9 9.4 4.3 1.2 1.3 0.6 0.0 0.0 0.2 0.2 0.4 4.5
0.0 0.0 0.0 0.0 0.0 0.0 0.0 0.0 0.0 0.0 0.0 0.0 0.0 0.0 0.0 0.0 0.0 0.0 0.0 0.0 3.4 18.8 31.8 9.9 0.0 3.2 0.0 0.0 0.0 0.0 0.0 0.0 1.3 3.0 22.5 19.4 14.1 3.7 4.2 3.5 6.1 9.8 8.4 7.4 4.4 1.0 0.9 0.3 0.3 0.2 0.2 0.2 0.5 0.3
0.0 0.0 0.0 0.0 0.0 0.0 0.0 0.0 0.0 0.0 0.0 0.0 0.0 0.0 0.0 0.0 0.0 0.0 0.0 0.0 0.0 7.3 20.6 11.4 0.0 0.0 2.7 0.0 0.0 0.0 0.0 2.1 6.7 17.6 24.9 15.1 4.7 7.0 3.8 5.6 7.8 3.2 11.4 11.1 9.5 2.4 3.7 0.7 0.7 0.4 0.8 1.0 1.7 1.2
0.0 0.0 0.0 0.0 0.0 0.0 0.0 0.0 0.0 0.0 0.0 0.0 0.0 0.0 0.0 0.0 0.0 0.0 51.3 0.0 0.0 0.0 22.0 17.2 2.4 2.3 4.9 2.0 0.6 0.7 1.3 3.7 6.5 14.5 13.8 4.9 0.4 7.5 12.9 7.5 1.0 1.7 6.5 8.5 11.2 4.8 3.6 3.7 2.2 0.9 2.2 3.4 4.4 2.7
0.0 0.0 0.0 0.0 0.0 0.0 0.0 0.0 0.0 0.0 0.0 0.0 0.0 0.0 0.0 0.0 0.0 27.6 22.4 2.7 0.0 0.0 35.2 20.1 12.3 1.8 3.1 3.4 3.6 6.0 3.2 9.3 8.4 10.9 8.8 4.0 3.9 8.8 9.5 1.5 0.2 0.0 2.1 4.7 6.7 8.8 8.4 9.4 11.2 7.0 2.6 2.8 3.3 1.5
0.0 0.0 0.0 0.0 0.0 0.0 0.0 0.0 0.0 0.0 0.0 0.0 0.0 0.0 0.0 0.0 0.0 10.7 0.0 0.0 0.0 2.9 17.0 21.5 14.6 15.3 1.7 7.4 10.9 3.8 12.7 11.6 12.8 9.7 5.5 3.4 4.0 7.3 10.1 0.0 0.0 0.1 0.3 0.8 0.8 1.3 3.9 5.0 5.1 4.5 1.8 0.6 0.1 0.0
0.0 0.0 0.0 0.0 0.0 0.0 0.0 0.0 0.0 0.0 0.0 0.0 0.0 0.0 0.0 0.0 37.5 0.0 0.0 0.0 0.0 3.7 24.9 11.8 10.6 20.0 2.0 7.4 7.4 8.8 6.5 20.7 8.9 15.2 6.2 5.5 7.0 9.4 1.3 0.2 0.7 0.1 0.1 0.0 0.0 0.0 0.2 1.0 0.2 0.0 0.3 0.1 1.1 1.1
0.0 0.0 0.0 0.0 0.0 0.0 0.0 0.0 0.0 0.0 0.0 0.0 0.0 43.8 60.5 4.8 0.0 0.0 7.2 24.4 29.5 24.6 15.1 10.8 1.3 11.1 2.6 5.6 16.4 15.9 16.1 13.1 16.1 5.3 2.4 8.7 4.0 1.2 0.9 0.7 0.3 0.4 0.1 0.1 0.8 1.2 0.9 0.8 0.3 0.1 0.0 1.0 0.2 0.1
0.0 0.0 0.0 0.0 0.0 0.0 0.0 0.0 0.0 0.0 0.0 0.0 30.2 27.9 0.0 0.0 0.3 14.6 34.7 26.5 18.6 16.2 3.6 1.8 0.1 2.5 0.3 8.2 13.1 8.4 18.9 11.7 15.8 5.6 4.9 7.6 5.0 5.3 4.5 4.3 2.4 1.8 0.6 0.5 0.4 0.3 0.0 0.1 2.3 1.8 0.8 0.2 0.0 0.1
0.0 0.0 0.0 0.0 0.0 0.0 0.0 0.0 0.0 0.0 0.0 0.0 0.1 0.0 0.4 13.0 27.0 28.0 23.6 14.1 4.1 2.8 4.3 2.8 7.0 8.1 4.5 1.3 16.3 21.7 15.1 15.3 8.5 5.2 14.4 8.4 7.0 3.3 2.2 3.9 1.7 0.1 0.0 0.0 0.0 0.0 0.3 0.2 0.1 0.3 1.0 0.9 1.0 3.9
0.0 0.0 0.0 0.0 0.0 0.0 0.0 0.0 0.0 0.0 0.0 0.1 12.7 18.6 22.4 22.7 28.9 19.9 9.9 6.4 4.8 2.4 3.2 2.7 11.6 5.5 9.9 4.9 19.8 19.2 24.0 13.3 5.4 24.6 12.9 8.3 4.7 5.2 4.0 1.1 0.4 0.6 0.8 0.5 0.9 0.1 0.0 0.0 0.9 2.0 3.3 7.0 6.5 6.1
0.0 0.0 0.0 0.0 0.0 0.0 0.2 0.0 0.0 0.0 1.8 10.8 20.1 24.8 20.2 14.7 10.6 7.0 4.2 3.4 3.2 2.7 3.7 5.5 10.0 12.4 7.3 13.2 13.9 20.7 15.4 14.0 17.9 12.8 9.3 11.1 9.2 5.3 4.3 4.2 3.8 3.1 3.7 3.3 1.4 1.1 2.3 1.9 3.2 4.7 4.8 7.8 7.0 7.0
0.2 0.1 0.0 0.0 0.0 0.0 0.0 0.0 0.0 0.0 12.7 19.1 11.7 11.6 8.7 8.8 5.5 4.0 2.7 1.8 2.0 3.6 8.1 11.2 12.2 11.8 15.7 22.4 10.7 10.3 15.4 13.4 10.3 13.2 14.2 12.6 8.7 6.9 6.1 7.2 7.7 9.8 10.2 9.5 11.8 12.5 11.5 9.7 7.9 10.7 10.9 9.9 8.0 8.6
0.3 0.2 0.0 0.0 0.0 0.0 0.0 0.0 3.1 10.0 18.8 11.0 9.7 8.8 7.0 5.1 6.9 5.8 5.0 4.6 2.5 4.4 8.7 13.8 17.9 15.7 14.7 13.0 12.3 11.9 12.3 14.1 16.6 14.2 11.4 6.6 5.5 6.0 7.0 7.8 8.7 10.0 11.3 11.5 11.4 12.9 14.4 15.4 15.6 16.7 16.6 14.5 13.5 11.6
1.1 1.7 0.0 0.1 0.0 2.0 3.9 7.8 8.2 22.0 15.3 8.5 10.2 7.5 7.8 9.4 6.8 6.5 7.4 7.9 5.1 12.1 16.5 16.0 18.9 12.3 9.1 8.9 8.2 9.7 14.8 17.1 11.9 9.3 6.8 5.5 7.4 6.6 7.0 6.5 7.2 7.5 9.8 10.7 11.0 12.1 13.3 14.7 14.1 12.4 12.8 14.7 12.6 12.3
1.1 0.1 0.3 0.1 0.4 8.1 10.8 4.7 14.6 10.8 9.4 7.6 10.1 10.9 7.5 8.6 9.6 8.7 7.3 7.3 8.6 10.0 9.5 15.7 8.4 6.6 7.6 7.3 11.6 15.4 15.6 11.8 7.4 6.6 7.5 8.4 8.2 8.9 7.5 5.9 7.1 7.3 8.3 10.7 10.1 11.3 11.3 9.5 8.0 9.8 10.1 10.9 9.8 10.3
1.4 0.6 0.0 0.3 2.1 12.2 17.8 10.2 6.0 8.5 7.7 7.5 8.4 7.9 6.7 9.8 12.1 9.6 9.2 8.3 6.5 6.0 10.9 8.1 9.0 5.6 8.2 10.3 13.4 11.0 9.2 8.1 9.2 10.1 10.9 11.1 10.4 8.9 8.1 7.5 6.8 9.3 9.1 10.7 9.6 8.7 9.7 9.0 7.5 7.4 8.0 7.7 6.8 8.3
0.0 0.7 0.0 0.8 4.0 25.4 17.9 9.5 2.0 4.1 5.9 6.3 6.4 6.3 6.3 10.0 9.7 8.2 6.2 5.1 5.5 9.2 10.2 9.8 9.5 11.2 12.7 13.2 14.4 13.1 10.9 9.2 6.9 7.6 10.1 12.5 13.6 10.0 9.7 9.7 9.9 9.5 8.5 8.7 9.3 9.4 9.0 8.8 8.5 5.3 4.6 6.3 7.0 6.7
1.0 0.0 0.2 1.9 7.6 16.8 12.6 7.1 7.9 3.1 4.5 5.2 5.4 2.5 7.0 3.8 4.6 4.6 3.8 1.7 4.7 8.3 8.9 11.0 12.8 12.5 12.7 14.2 12.6 9.7 9.1 7.2 8.0 6.8 7.5 9.1 10.9 7.8 8.5 9.1 7.3 6.3 4.7 6.1 6.6 9.3 8.0 6.6 6.4 5.6 4.4 3.9 4.8 5.7
1.3 1.1 5.0 4.8 16.3 15.4 13.6 3.9 3.0 4.7 4.5 4.2 3.5 3.2 4.7 5.1 3.2 3.8 1.9 3.9 8.3 12.0 11.1 11.2 11.1 10.3 9.1 10.0 11.4 10.1 11.4 7.3 6.6 6.6 7.3 6.0 7.4 6.8 7.7 8.7 5.9 5.4 4.7 4.9 4.7 6.2 5.7 4.4 4.0 4.0 4.1 3.3 2.4 3.0
2.9 5.1 13.2 10.8 12.6 9.1 4.0 1.9 4.5 5.5 5.8 5.5 3.8 3.7 4.2 3.5 3.3 0.9 4.5 6.7 11.0 13.0 11.0 8.8 9.5 9.8 9.7 11.1 8.4 7.9 9.5 7.6 8.7 10.5 9.9 9.1 8.3 7.8 6.6 7.0 5.9 4.9 5.2 5.6 3.8 4.0 3.7 3.3 3.2 3.7 3.5 3.0 2.6 2.6
4.0 12.5 13.0 11.3 8.6 4.5 2.4 3.2 4.1 4.4 4.3 3.8 4.3 3.6 4.4 3.1 0.2 4.4 6.5 9.2 11.1 7.5 6.6 7.8 7.2 8.7 9.1 7.7 8.7 9.0 11.2 7.8 8.4 9.9 10.4 7.6 6.3 7.4 5.5 5.7 3.9 3.9 3.9 3.9 3.0 3.3 3.9 3.4 2.1 2.1 2.2 3.1 2.4 2.3
23.9 12.5 7.8 6.6 5.2 4.9 3.4 1.6 1.8 3.9 5.9 4.8 7.0 7.3 8.3 5.0 7.8 7.1 8.0 10.8 7.3 6.6 6.4 7.0 6.8 6.9 6.5 8.0 8.7 9.1 8.8 9.1 9.8 9.6 11.0 9.2 7.6 6.6 5.8 4.8 4.4 4.6 3.2 3.5 4.5 4.7 3.9 3.2 3.1 2.2 1.3 0.9 1.1 2.1
11.0 4.2 6.3 4.8 5.3 5.5 5.9 4.7 4.6 3.7 3.8 3.8 5.1 3.1 2.6 4.6 5.4 9.9 10.4 11.0 8.1 8.2 8.5 8.5 8.4 6.0 6.3 7.1 6.7 5.2 6.6 7.4 7.6 6.8 9.9 8.3 8.8 9.6 8.1 6.6 5.6 5.2 3.1 3.3 4.7 4.2 3.2 2.7 2.5 2.4 2.6 1.4 1.3 2.5
7.7 3.0 1.2 0.6 1.5 2.1 2.8 3.0 3.0 3.7 4.3 5.5 4.5 3.8 4.0 6.6 7.2 7.9 7.1 7.2 7.4 8.4 7.0 7.2 6.3 7.0 7.2 6.8 6.1 5.8 5.1 4.6 5.2 6.9 7.7 7.2 7.1 8.2 8.9 10.0 9.2 7.8 4.6 4.2 3.7 3.7 4.1 3.4 3.2 3.0 3.1 2.9 2.5 3.1
2.8 1.3 1.8 1.4 2.0 1.8 2.8 2.4 3.5 4.5 3.9 3.2 4.3 4.3 6.0 5.6 7.4 8.0 7.4 7.6 6.0 4.9 3.9 3.4 3.0 3.4 3.8 4.3 4.6 4.2 3.7 4.4 4.6 4.3 3.8 3.8 5.0 7.0 6.7 6.4 5.4 4.5 4.7 4.7 5.0 4.2 4.0 4.0 3.6 3.7 3.6 3.5 3.4 2.7
2.4 1.8 2.5 3.2 2.4 2.7 4.7 4.6 4.9 3.4 2.9 3.1 3.9 4.2 5.0 5.0 7.7 7.2 6.6 5.0 4.6 4.0 3.2 2.4 2.6 1.2 1.2 1.0 1.0 1.9 3.1 3.8 3.4 4.1 3.3 4.2 5.6 5.0 4.6 4.4 3.8 4.1 4.4 4.9 4.7 4.9 5.0 4.0 3.2 3.1 3.6 5.1 4.1 3.8
1.5 1.7 2.1 2.3 2.3 2.9 5.0 2.6 3.5 2.5 1.2 1.2 1.0 1.4 1.8 5.5 9.2 7.2 4.9 3.5 3.2 3.5 3.4 2.8 2.2 1.8 1.8 1.6 1.3 1.4 2.7 3.1 3.3 4.2 4.1 3.4 4.2 4.0 3.8 3.7 3.6 3.2 4.1 4.5 5.9 5.6 6.1 5.9 5.6 5.6 5.5 4.8 4.8 6.0
0.6 1.0 1.1 2.0 2.8 4.0 2.9 2.2 2.1 1.7 1.1 0.8 0.5 1.2 2.5 4.0 5.5 3.7 2.9 3.5 2.4 1.7 1.6 1.7 1.8 2.1 1.8 2.1 3.0 3.2 3.1 2.0 1.9 2.5 2.7 3.4 3.0 3.1 3.0 2.6 3.2 3.4 3.6 4.1 3.9 5.2 6.7 7.3 7.3 7.7 6.7 5.6 4.8 5.2
0.7 1.8 1.6 1.2 2.0 2.0 3.1 4.6 3.1 2.0 1.8 1.7 2.5 1.8 3.2 3.3 3.3 3.7 2.7 2.6 2.3 1.7 1.6 2.1 2.3 2.6 3.0 4.0 4.1 4.3 3.8 2.9 2.3 2.5 2.3 2.4 2.9 3.2 2.9 2.1 2.1 2.4 2.5 3.0 3.2 4.2 5.1 6.5 8.2 7.4 6.4 6.3 6.3 5.5
1.4 1.7 1.4 2.1 2.1 2.4 1.9 3.2 1.4 1.8 1.9 2.7 3.7 2.7 2.8 2.8 4.9 5.6 2.4 2.5 4.7 3.8 3.4 4.1 4.2 4.1 4.4 4.4 4.6 3.7 2.5 3.0 2.6 2.6 2.5 2.6 2.5 2.5 2.3 2.1 2.2 2.3 2.3 2.4 2.8 3.3 3.5 4.5 5.2 6.7 7.3 7.4 8.0 7.6

GFSWCAN_prec_snow_279.txt.gz
Snowfall_Accumulation
0.0 0.0 0.0 0.0 0.0 0.0 0.0 0.0 0.0 0.0 0.0 0.0 0.0 0.0 0.0 0.0 0.0 0.0 0.0 0.0 0.5 26.8 10.9 0.1 0.0 3.8 8.1 9.6 18.8 13.2 18.1 16.4 25.1 34.1 26.5 20.5 13.0 5.3 6.1 5.1 3.1 4.5 16.5 20.6 23.5 25.6 14.4 0.4 0.1 1.5 1.1 0.2 1.1 7.5
0.0 0.0 0.0 0.0 0.0 0.0 0.0 0.0 0.0 0.0 0.0 0.0 0.0 0.0 0.0 0.0 0.0 0.0 2.0 0.0 0.0 22.7 17.1 0.0 0.0 0.0 0.0 0.0 7.9 14.3 18.0 11.4 13.6 25.4 20.4 17.5 17.1 13.2 4.1 8.4 6.2 9.5 6.5 14.2 14.6 14.2 2.0 0.3 0.6 0.4 0.4 0.5 2.9 7.5
0.0 0.0 0.0 0.0 0.0 0.0 0.0 0.0 0.0 0.0 0.0 0.0 0.0 0.0 0.0 0.0 0.0 0.0 0.0 0.0 0.0 30.1 12.5 3.7 6.4 0.0 0.0 0.0 0.0 17.1 6.4 3.6 11.2 9.6 18.3 13.7 15.5 6.8 9.8 7.6 7.6 5.7 2.9 9.4 4.3 1.2 1.3 0.6 0.0 0.0 0.2 0.2 0.4 4.5
0.0 0.0 0.0 0.0 0.0 0.0 0.0 0.0 0.0 0.0 0.0 0.0 0.0 0.0 0.0 0.0 0.0 0.0 0.0 0.0 3.4 18.8 31.8 9.9 0.0 3.2 0.0 0.0 0.0 0.0 0.0 0.0 1.3 3.0 22.5 19.4 14.1 3.7 4.2 3.5 6.1 9.8 8.4 7.4 4.4 1.0 0.9 0.3 0.3 0.2 0.2 0.2 0.5 0.3
0.0 0.0 0.0 0.0 0.0 0.0 0.0 0.0 0.0 0.0 0.0 0.0 0.0 0.0 0.0 0.0 0.0 0.0 0.0 0.0 0.0 7.3 20.6 11.4 0.0 0.0 2.7 0.0 0.0 0.0 0.0 2.1 6.7 17.6 24.9 15.1 4.7 7.0 3.8 5.6 7.8 3.2 11.4 11.1 9.5 2.4 3.7 0.7 0.7 0.4 0.8 1.0 1.7 1.2
0.0 0.0 0.0 0.0 0.0 0.0 0.0 0.0 0.0 0.0 0.0 0.0 0.0 0.0 0.0 0.0 0.0 0.0 51.3 0.0 0.0 0.0 22.0 17.2 2.4 2.3 4.9 2.0 0.6 0.7 1.3 3.7 6.5 14.5 13.8 4.9 0.4 7.5 12.9 7.5 1.0 1.7 6.5 8.5 11.2 4.8 3.6 3.7 2.2 0.9 2.2 3.4 4.4 2.7
0.0 0.0 0.0 0.0 0.0 0.0 0.0 0.0 0.0 0.0 0.0 0.0 0.0 0.0 0.0 0.0 0.0 27.6 22.4 2.7 0.0 0.0 35.2 20.1 12.3 1.8 3.1 3.4 3.6 6.0 3.2 9.3 8.4 10.9 8.8 4.0 3.9 8.8 9.5 1.5 0.2 0.0 2.1 4.7 6.7 8.8 8.4 9.4 11.2 7.0 2.6 2.8 3.3 1.5
0.0 0.0 0.0 0.0 0.0 0.0 0.0 0.0 0.0 0.0 0.0 0.0 0.0 0.0 0.0 0.0 0.0 10.7 0.0 0.0 0.0 2.9 17.0 21.5 14.6 15.3 1.7 7.4 10.9 3.8 12.7 11.6 12.8 9.7 5.5 3.4 4.0 7.3 10.2 0.0 0.0 0.1 0.3 0.8 0.8 1.3 3.9 5.0 5.1 4.5 1.8 0.6 0.1 0.0
0.0 0.0 0.0 0.0 0.0 0.0 0.0 0.0 0.0 0.0 0.0 0.0 0.0 0.0 0.0 0.0 37.5 0.0 0.0 0.0 0.0 3.7 24.9 11.8 10.6 20.0 2.0 7.4 7.4 8.8 6.5 20.7 8.9 15.2 6.3 5.5 7.0 9.4 1.3 0.2 0.7 0.1 0.1 0.1 0.0 0.0 0.2 1.0 0.2 0.0 0.3 0.1 1.1 1.1
0.0 0.0 0.0 0.0 0.0 0.0 0.0 0.0 0.0 0.0 0.0 0.0 0.0 43.8 60.5 4.8 0.0 0.0 7.2 24.4 29.5 24.6 15.1 10.8 1.3 11.1 2.6 5.6 16.4 15.9 16.1 13.1 16.1 5.3 2.4 8.9 4.0 1.2 0.9 0.7 0.3 0.4 0.1 0.1 0.9 1.5 0.9 0.8 0.3 0.1 0.0 1.0 0.2 0.1
0.0 0.0 0.0 0.0 0.0 0.0 0.0 0.0 0.0 0.0 0.0 0.0 30.2 27.9 0.0 0.0 0.3 14.6 34.7 26.5 18.6 16.2 3.6 1.8 0.1 2.5 0.3 8.2 13.1 8.4 18.9 11.7 15.8 5.6 4.9 7.6 5.0 5.3 4.5 4.3 2.4 1.8 0.6 0.5 0.4 0.3 0.0 0.1 2.3 1.8 1.0 0.3 0.1 0.1
0.0 0.0 0.0 0.0 0.0 0.0 0.0 0.0 0.0 0.0 0.0 0.0 0.1 0.0 0.4 13.0 27.0 28.0 23.6 14.1 4.1 2.8 4.3 2.8 7.0 8.1 4.5 1.3 16.3 21.7 15.1 15.3 8.5 5.2 14.4 8.4 7.0 3.3 2.2 3.9 1.7 0.1 0.0 0.0 0.0 0.0 0.3 0.2 0.1 0.3 1.0 0.9 1.0 3.9
0.0 0.0 0.0 0.0 0.0 0.0 0.0 0.0 0.0 0.0 0.0 0.1 12.7 18.6 22.4 22.7 28.9 19.9 9.9 6.4 4.8 2.4 3.2 2.7 11.6 5.5 9.9 4.9 19.8 19.2 24.0 13.3 5.4 24.6 12.9 8.3 4.7 5.2 4.0 1.1 0.4 0.6 0.8 0.5 0.9 0.1 0.0 0.0 0.9 2.0 3.3 7.0 6.5 6.1
0.0 0.0 0.0 0.0 0.0 0.0 0.2 0.0 0.0 0.0 1.8 10.8 20.1 24.8 20.2 14.7 10.6 7.0 4.2 3.4 3.2 2.7 3.7 5.5 10.0 12.4 7.3 13.2 13.9 20.7 15.4 14.0 18.0 12.9 9.3 11.1 9.2 5.3 4.3 4.2 3.8 3.1 3.7 3.3 1.4 1.1 2.3 1.9 3.2 4.7 4.8 7.8 7.0 7.0
0.2 0.1 0.0 0.0 0.0 0.0 0.0 0.0 0.0 0.0 12.7 19.1 11.7 11.6 8.7 8.8 5.5 4.0 2.7 1.8 2.0 3.6 8.1 11.2 12.2 11.8 15.7 22.4 10.7 10.3 15.5 13.4 10.3 13.2 14.4 12.6 8.7 6.9 6.1 7.2 7.7 9.8 10.2 9.5 11.8 12.5 11.5 9.7 7.9 10.7 10.9 9.9 8.0 8.6
0.3 0.2 0.0 0.0 0.0 0.0 0.0 0.0 3.1 10.0 18.8 11.0 9.7 8.8 7.0 5.1 6.9 5.8 5.0 4.6 2.5 4.4 8.7 13.8 17.9 15.7 14.7 13.0 12.4 11.9 12.3 14.3 16.8 14.4 11.6 6.7 5.5 6.0 7.0 7.8 8.7 10.0 11.3 11.5 11.4 12.9 14.4 15.4 15.6 16.7 16.6 14.5 13.5 11.6
1.1 1.7 0.0 0.1 0.0 2.0 3.9 7.8 8.2 22.0 15.3 8.5 10.2 7.5 7.8 9.4 6.8 6.5 7.4 7.9 5.1 12.1 16.5 16.0 18.9 12.3 9.1 8.9 8.2 9.7 14.8 17.2 11.9 9.3 6.8 5.5 7.5 6.6 7.0 6.5 7.2 7.5 9.8 10.7 11.0 12.1 13.3 14.7 14.1 12.4 12.8 14.7 12.6 12.3
1.1 0.1 0.3 0.1 0.4 8.1 10.8 4.7 14.6 10.8 9.4 7.6 10.1 10.9 7.5 8.6 9.6 8.7 7.3 7.3 8.6 10.0 9.5 15.7 8.4 6.6 7.6 7.3 11.6 15.4 15.6 11.8 7.4 6.6 7.5 8.4 8.2 8.9 7.5 5.9 7.1 7.3 8.3 10.7 10.1 11.3 11.3 9.5 8.0 9.8 10.1 10.9 9.8 10.3
1.4 0.6 0.0 0.3 2.1 12.2 17.8 10.2 6.0 8.5 7.7 7.5 8.4 7.9 6.7 9.8 12.1 9.6 9.2 8.3 6.5 6.0 10.9 8.1 9.0 5.6 8.2 10.3 13.4 11.0 9.2 8.1 9.2 10.1 10.9 11.1 10.4 8.9 8.1 7.5 6.8 9.3 9.1 10.7 9.6 8.7 9.7 9.0 7.5 7.4 8.0 7.7 6.8 8.3
0.0 0.7 0.0 0.8 4.0 25.4 17.9 9.5 2.0 4.1 5.9 6.3 6.4 6.3 6.3 10.0 9.7 8.2 6.2 5.1 5.5 9.2 10.2 9.8 9.5 11.2 12.7 13.2 14.4 13.1 10.9 9.2 6.9 7.6 10.1 12.5 13.6 10.0 9.7 9.7 9.9 9.6 8.5 8.7 9.3 9.4 9.0 8.8 8.5 5.3 4.6 6.3 7.0 6.8
1.0 0.0 0.2 1.9 7.6 16.8 12.6 7.1 7.9 3.1 4.5 5.2 5.4 2.5 7.0 3.8 4.6 4.6 3.8 1.7 4.7 8.3 8.9 11.0 12.8 12.5 12.7 14.2 12.6 9.7 9.1 7.2 8.0 6.8 7.5 9.1 10.9 7.8 8.5 9.1 7.3 6.3 4.7 6.1 6.6 9.3 8.0 6.6 6.4 5.6 4.4 4.0 5.1 6.2
1.3 1.1 5.0 4.8 16.3 15.4 13.6 3.9 3.0 4.7 4.5 4.2 3.5 3.2 4.7 5.1 3.2 3.8 1.9 3.9 8.3 12.0 11.1 11.2 11.1 10.3 9.1 10.0 11.4 10.1 11.4 7.3 6.6 6.6 7.3 6.0 7.4 6.8 7.7 8.7 5.9 5.4 4.7 4.9 4.7 6.2 5.7 4.4 4.0 4.2 4.5 4.1 3.1 3.4
2.9 5.1 13.2 10.8 12.6 9.1 4.0 1.9 4.5 5.5 5.8 5.5 3.8 3.7 4.2 3.5 3.3 0.9 4.5 6.7 11.0 13.0 11.0 8.8 9.5 9.8 9.7 11.1 8.4 7.9 9.5 7.6 8.7 10.5 9.9 9.1 8.3 7.8 6.6 7.0 5.9 4.9 5.2 5.6 3.8 4.0 3.7 3.3 3.6 4.2 4.1 3.3 2.6 2.6
4.0 12.5 13.0 11.3 8.6 4.5 2.4 3.2 4.1 4.4 4.3 3.8 4.3 3.6 4.4 3.1 0.2 4.4 6.5 9.2 11.1 7.5 6.6 7.8 7.2 8.7 9.1 7.7 8.7 9.0 11.2 7.8 8.4 9.9 10.4 7.6 6.3 7.4 5.5 5.7 3.9 3.9 3.9 3.9 3.0 3.3 3.9 3.4 2.1 2.4 2.3 3.1 2.4 2.3
23.9 12.5 7.8 6.6 5.2 4.9 3.4 1.6 1.8 3.9 5.9 4.8 7.0 7.3 8.3 5.0 7.8 7.1 8.0 10.8 7.3 6.6 6.4 7.0 6.8 6.9 6.5 8.0 8.7 9.1 8.8 9.1 9.8 9.6 11.0 9.2 7.6 6.6 5.8 4.8 4.4 4.6 3.2 3.5 4.5 4.7 3.9 3.2 3.1 2.3 1.3 0.9 1.1 2.1
11.0 4.2 6.3 4.8 5.3 5.5 5.9 4.7 4.6 3.7 3.8 3.8 5.1 3.1 2.6 4.6 5.4 9.9 10.4 11.0 8.1 8.2 8.5 8.5 8.4 6.0 6.3 7.1 6.7 5.2 6.6 7.4 7.6 6.8 9.9 8.3 8.8 9.6 8.1 6.6 5.6 5.2 3.1 3.3 4.7 4.2 3.2 2.7 2.5 2.4 2.6 1.4 1.3 2.5
7.7 3.0 1.2 0.6 1.5 2.1 2.8 3.0 3.0 3.7 4.3 5.5 4.5 3.8 4.0 6.6 7.2 7.9 7.1 7.2 7.4 8.4 7.0 7.2 6.3 7.0 7.2 6.8 6.1 5.8 5.1 4.6 5.2 6.9 7.7 7.2 7.1 8.2 8.9 10.0 9.2 7.8 4.6 4.2 3.7 3.7 4.1 3.4 3.2 3.0 3.1 2.9 2.5 3.1
2.8 1.3 1.8 1.4 2.0 1.8 2.8 2.4 3.5 4.5 3.9 3.2 4.3 4.3 6.0 5.6 7.4 8.0 7.4 7.6 6.0 4.9 3.9 3.4 3.0 3.4 3.8 4.3 4.6 4.2 3.7 4.4 4.6 4.3 3.8 3.8 5.0 7.0 6.7 6.4 5.4 4.5 4.7 4.7 5.0 4.2 4.0 4.0 3.6 3.7 3.6 3.5 3.4 2.7
2.4 1.8 2.5 3.2 2.4 2.7 4.7 4.6 4.9 3.4 2.9 3.1 3.9 4.2 5.0 5.0 7.7 7.2 6.6 5.0 4.6 4.0 3.2 2.4 2.6 1.2 1.2 1.0 1.0 1.9 3.1 3.8 3.4 4.3 3.3 4.2 5.6 5.0 4.6 4.4 3.8 4.1 4.4 4.9 4.7 4.9 5.0 4.0 3.2 3.1 3.6 5.1 4.1 3.8
1.5 1.7 2.1 2.3 2.3 2.9 5.0 2.6 3.5 2.5 1.2 1.2 1.0 1.4 1.8 5.5 9.2 7.2 4.9 3.5 3.2 3.5 3.4 2.8 2.2 1.8 1.8 1.6 1.3 1.4 2.7 3.1 3.3 4.5 4.5 3.4 4.2 4.0 3.8 3.7 3.6 3.2 4.1 4.5 5.9 5.6 6.1 5.9 5.6 5.6 5.5 4.8 4.8 6.0
0.6 1.0 1.1 2.0 2.8 4.0 2.9 2.2 2.1 1.7 1.1 0.8 0.5 1.2 2.5 4.0 5.5 3.7 2.9 3.5 2.4 1.7 1.6 1.7 1.8 2.1 1.8 2.1 3.0 3.2 3.1 2.0 1.9 2.5 2.9 3.5 3.0 3.1 3.0 2.6 3.2 3.4 3.6 4.1 3.9 5.2 6.7 7.3 7.3 7.7 6.7 5.6 4.8 5.2
0.7 1.8 1.6 1.2 2.0 2.0 3.1 4.6 3.1 2.0 1.8 1.7 2.5 1.8 3.2 3.3 3.3 3.7 2.7 2.6 2.3 1.7 1.6 2.1 2.3 2.6 3.0 4.0 4.1 4.3 3.9 2.9 2.3 2.5 2.3 2.5 3.0 3.2 3.0 2.3 2.4 2.7 2.7 3.1 3.2 4.2 5.1 6.5 8.2 7.4 6.4 6.3 6.3 5.5
1.4 1.7 1.4 2.1 2.1 2.4 1.9 3.2 1.4 1.8 1.9 2.7 3.7 2.7 2.8 2.8 4.9 5.6 2.4 2.5 4.7 3.8 3.4 4.1 4.2 4.1 4.4 4.4 4.6 3.7 2.5 3.0 2.6 2.7 2.7 2.8 2.7 2.7 2.3 2.4 2.4 2.5 2.4 2.4 2.8 3.3 3.5 4.5 5.2 6.7 7.3 7.4 8.0 7.6

GFSWCAN_prec_snow_282.txt.gz
Snowfall_Accumulation
0.0 0.0 0.0 0.0 0.0 0.0 0.0 0.0 0.0 0.0 0.0 0.0 0.0 0.0 0.0 0.0 0.0 0.0 0.0 0.0 0.5 26.8 10.9 0.1 0.0 3.8 8.1 9.6 18.8 13.2 18.1 16.4 25.1 34.1 26.5 20.5 13.0 5.3 6.1 5.1 3.1 4.5 16.5 20.6 23.5 25.6 14.4 0.4 0.1 1.5 1.1 0.2 1.1 7.5
0.0 0.0 0.0 0.0 0.0 0.0 0.0 0.0 0.0 0.0 0.0 0.0 0.0 0.0 0.0 0.0 0.0 0.0 2.0 0.0 0.0 22.7 17.1 0.0 0.0 0.0 0.0 0.0 7.9 14.3 18.0 11.4 13.6 25.4 20.4 17.5 17.1 13.2 4.1 8.4 6.2 9.5 6.5 14.2 14.6 14.2 2.0 0.3 0.6 0.4 0.4 0.5 2.9 7.5
0.0 0.0 0.0 0.0 0.0 0.0 0.0 0.0 0.0 0.0 0.0 0.0 0.0 0.0 0.0 0.0 0.0 0.0 0.0 0.0 0.0 30.1 12.5 3.7 6.4 0.0 0.0 0.0 0.0 17.1 6.4 3.6 11.2 9.6 18.3 13.7 15.5 6.8 9.8 7.6 7.6 5.7 2.9 9.4 4.3 1.2 1.3 0.6 0.0 0.0 0.2 0.2 0.4 4.5
0.0 0.0 0.0 0.0 0.0 0.0 0.0 0.0 0.0 0.0 0.0 0.0 0.0 0.0 0.0 0.0 0.0 0.0 0.0 0.0 3.4 18.8 31.8 9.9 0.0 3.2 0.0 0.0 0.0 0.0 0.0 0.0 1.3 3.0 22.5 19.4 14.1 3.7 4.2 3.5 6.1 9.8 8.4 7.4 4.4 1.0 0.9 0.3 0.3 0.2 0.2 0.2 0.5 0.3
0.0 0.0 0.0 0.0 0.0 0.0 0.0 0.0 0.0 0.0 0.0 0.0 0.0 0.0 0.0 0.0 0.0 0.0 0.0 0.0 0.0 7.3 20.6 11.4 0.0 0.0 2.7 0.0 0.0 0.0 0.0 2.1 6.7 17.6 24.9 15.1 4.7 7.0 3.8 5.6 7.8 3.2 11.4 11.1 9.5 2.4 3.7 0.7 0.7 0.4 0.8 1.0 1.7 1.2
0.0 0.0 0.0 0.0 0.0 0.0 0.0 0.0 0.0 0.0 0.0 0.0 0.0 0.0 0.0 0.0 0.0 0.0 51.3 0.0 0.0 0.0 22.0 17.2 2.4 2.3 4.9 2.0 0.6 0.7 1.3 3.7 6.5 14.5 13.8 4.9 0.4 7.5 12.9 7.5 1.0 1.7 6.5 8.5 11.2 4.8 3.6 3.7 2.2 0.9 2.2 3.4 4.4 2.7
0.0 0.0 0.0 0.0 0.0 0.0 0.0 0.0 0.0 0.0 0.0 0.0 0.0 0.0 0.0 0.0 0.0 27.6 22.4 2.7 0.0 0.0 35.2 20.1 12.3 1.8 3.1 3.4 3.6 6.0 3.2 9.3 8.4 10.9 8.8 4.0 3.9 8.8 9.5 1.5 0.2 0.0 2.1 4.7 6.7 8.8 8.4 9.4 11.2 7.0 2.6 2.8 3.3 1.5
0.0 0.0 0.0 0.0 0.0 0.0 0.0 0.0 0.0 0.0 0.0 0.0 0.0 0.0 0.0 0.0 0.0 10.7 0.0 0.0 0.0 2.9 17.0 21.5 14.6 15.3 1.7 7.4 10.9 3.8 12.7 11.6 12.8 9.7 5.5 3.4 4.0 7.3 10.2 0.0 0.0 0.1 0.3 0.8 0.8 1.3 3.9 5.0 5.1 4.5 1.8 0.6 0.1 0.0
0.0 0.0 0.0 0.0 0.0 0.0 0.0 0.0 0.0 0.0 0.0 0.0 0.0 0.0 0.0 0.0 37.5 0.0 0.0 0.0 0.0 3.7 24.9 11.8 10.6 20.0 2.0 7.4 7.4 8.8 6.5 20.8 8.9 15.3 6.3 5.5 7.0 9.5 1.3 0.2 0.7 0.1 0.1 0.1 0.0 0.0 0.2 1.0 0.2 0.0 0.3 0.1 1.1 1.2
0.0 0.0 0.0 0.0 0.0 0.0 0.0 0.0 0.0 0.0 0.0 0.0 0.0 43.8 60.5 4.8 0.0 0.0 7.2 24.4 29.5 24.6 15.1 10.8 1.3 11.1 2.6 5.6 16.4 15.9 16.1 13.1 16.2 5.4 2.5 9.0 4.0 1.2 0.9 0.7 0.3 0.4 0.1 0.1 0.9 1.5 0.9 0.8 0.3 0.1 0.0 1.0 0.2 0.1
0.0 0.0 0.0 0.0 0.0 0.0 0.0 0.0 0.0 0.0 0.0 0.0 30.2 28.0 0.0 0.0 0.3 14.6 34.7 26.5 18.6 16.2 3.6 1.8 0.1 2.5 0.3 8.2 13.1 8.4 18.9 11.7 15.8 5.6 5.0 7.6 5.0 5.3 4.5 4.3 2.4 1.8 0.6 0.5 0.4 0.3 0.0 0.1 2.3 1.8 1.0 0.3 0.1 0.1
0.0 0.0 0.0 0.0 0.0 0.0 0.0 0.0 0.0 0.0 0.0 0.0 0.1 0.0 0.4 13.0 27.0 28.0 23.6 14.1 4.1 2.8 4.3 2.8 7.0 8.1 4.5 1.3 16.3 21.7 15.1 15.3 8.5 5.2 14.5 8.4 7.0 3.3 2.2 3.9 1.7 0.1 0.0 0.0 0.0 0.0 0.3 0.2 0.1 0.3 1.0 0.9 1.0 3.9
0.0 0.0 0.0 0.0 0.0 0.0 0.0 0.0 0.0 0.0 0.0 0.1 12.7 18.6 22.4 22.7 28.9 19.9 9.9 6.4 4.8 2.4 3.2 2.7 11.6 5.5 9.9 4.9 19.8 19.2 24.0 13.4 5.4 24.7 12.9 8.4 4.7 5.3 4.0 1.1 0.4 0.6 0.8 0.5 0.9 0.1 0.0 0.0 0.9 2.0 3.3 7.0 6.5 6.1
0.0 0.0 0.0 0.0 0.0 0.0 0.2 0.0 0.0 0.0 1.8 10.8 20.1 24.8 20.2 14.7 10.6 7.0 4.2 3.4 3.2 2.7 3.7 5.5 10.0 12.4 7.3 13.2 13.9 20.7 15.4 14.0 18.0 12.9 9.4 11.3 9.3 5.3 4.3 4.2 3.8 3.1 3.7 3.3 1.4 1.1 2.3 1.9 3.2 4.7 4.8 7.8 7.0 7.0
0.2 0.1 0.0 0.0 0.0 0.0 0.0 0.0 0.0 0.0 12.7 19.1 11.7 11.6 8.7 8.8 5.5 4.0 2.7 1.8 2.0 3.6 8.1 11.2 12.2 11.8 15.7 22.4 10.7 10.3 15.5 13.4 10.3 13.4 14.7 12.9 8.8 6.9 6.1 7.2 7.7 9.8 10.2 9.5 11.8 12.5 11.5 9.7 7.9 10.7 10.9 9.9 8.0 8.6
0.3 0.2 0.0 0.0 0.0 0.0 0.0 0.0 3.1 10.0 18.8 11.0 9.7 8.8 7.0 5.1 7.0 5.8 5.0 4.6 2.5 4.4 8.7 13.8 17.9 15.7 14.7 13.0 12.4 11.9 12.4 14.4 17.0 14.6 11.8 6.7 5.5 6.0 7.0 7.8 8.7 10.0 11.3 11.5 11.5 12.9 14.4 15.4 15.6 16.7 16.6 14.5 13.5 11.6
1.1 1.7 0.0 0.1 0.0 2.0 3.9 7.8 8.2 22.0 15.3 8.5 10.2 7.5 7.8 9.4 6.8 6.5 7.4 7.9 5.1 12.1 16.5 16.0 18.9 12.3 9.1 8.9 8.3 9.8 15.0 17.3 11.9 9.3 6.8 5.5 7.5 6.6 7.0 6.5 7.2 7.5 9.8 10.8 11.0 12.1 13.3 14.7 14.1 12.4 12.8 14.7 12.6 12.3
1.1 0.1 0.3 0.1 0.4 8.1 10.8 4.7 14.6 10.8 9.4 7.6 10.1 10.9 7.5 8.6 9.6 8.7 7.3 7.3 8.6 10.0 9.5 15.7 8.4 6.6 7.6 7.3 11.7 15.5 15.6 11.8 7.4 6.6 7.5 8.4 8.2 8.9 7.5 5.9 7.1 7.3 8.3 10.7 10.1 11.3 11.3 9.5 8.0 9.8 10.1 10.9 9.8 10.3
1.4 0.6 0.0 0.3 2.1 12.2 17.8 10.2 6.0 8.5 7.7 7.5 8.4 7.9 6.7 9.8 12.1 9.6 9.2 8.3 6.5 6.0 10.9 8.1 9.0 5.6 8.2 10.3 13.4 11.0 9.2 8.1 9.2 10.1 10.9 11.1 10.4 8.9 8.1 7.5 6.8 9.3 9.1 10.7 9.6 8.7 9.7 9.0 7.5 7.4 8.0 7.7 6.9 8.4
0.0 0.7 0.0 0.8 4.0 25.4 17.9 9.5 2.0 4.1 5.9 6.3 6.4 6.3 6.3 10.0 9.7 8.2 6.2 5.1 5.5 9.2 10.2 9.8 9.5 11.2 12.7 13.2 14.4 13.1 10.9 9.2 6.9 7.6 10.1 12.5 13.6 10.0 9.7 9.7 9.9 9.6 8.5 8.7 9.3 9.4 9.0 8.8 8.5 5.3 4.6 6.3 7.2 7.0
1.0 0.0 0.2 1.9 7.6 16.8 12.6 7.1 7.9 3.1 4.5 5.2 5.4 2.5 7.0 3.8 4.6 4.6 3.8 1.7 4.7 8.3 8.9 11.0 12.8 12.5 12.7 14.2 12.6 9.7 9.1 7.2 8.0 6.8 7.5 9.1 10.9 7.8 8.5 9.1 7.3 6.3 4.7 6.1 6.6 9.3 8.0 6.6 6.4 5.6 4.4 4.1 5.3 6.6
1.3 1.1 5.0 4.8 16.3 15.4 13.6 3.9 3.0 4.7 4.5 4.2 3.5 3.2 4.7 5.1 3.2 3.8 1.9 3.9 8.3 12.0 11.1 11.2 11.1 10.3 9.1 10.0 11.4 10.1 11.4 7.3 6.6 6.6 7.3 6.0 7.4 6.8 7.7 8.7 5.9 5.4 4.8 4.9 4.7 6.2 5.7 4.4 4.0 4.2 4.5 4.2 3.3 3.6
2.9 5.1 13.2 10.8 12.6 9.1 4.0 1.9 4.5 5.5 5.8 5.5 3.8 3.7 4.2 3.5 3.3 0.9 4.5 6.7 11.0 13.0 11.0 8.8 9.5 9.8 9.7 11.1 8.4 7.9 9.5 7.6 8.7 10.5 9.9 9.1 8.3 7.8 6.6 7.0 5.9 4.9 5.2 5.6 3.8 4.0 3.7 3.3 3.6 4.3 4.1 3.5 2.7 2.6
4.0 12.5 13.0 11.3 8.6 4.5 2.4 3.2 4.1 4.4 4.3 3.8 4.3 3.6 4.4 3.1 0.2 4.4 6.5 9.2 11.1 7.5 6.6 7.8 7.2 8.7 9.1 7.7 8.7 9.0 11.2 7.8 8.4 9.9 10.4 7.6 6.3 7.4 5.5 5.7 3.9 3.9 3.9 3.9 3.0 3.3 3.9 3.4 2.1 2.4 2.4 3.1 2.4 2.3
23.9 12.5 7.8 6.6 5.2 4.9 3.4 1.6 1.8 3.9 5.9 4.8 7.0 7.3 8.3 5.0 7.8 7.1 8.0 10.8 7.3 6.6 6.4 7.0 6.8 6.9 6.5 8.0 8.7 9.1 8.8 9.1 9.8 9.6 11.0 9.2 7.6 6.6 5.8 4.8 4.4 4.6 3.2 3.5 4.5 4.7 3.9 3.2 3.1 2.3 1.3 0.9 1.1 2.1
11.0 4.2 6.3 4.8 5.3 5.5 5.9 4.7 4.6 3.7 3.8 3.8 5.1 3.1 2.6 4.6 5.4 9.9 10.4 11.0 8.1 8.2 8.5 8.5 8.4 6.0 6.3 7.1 6.7 5.2 6.6 7.4 7.6 6.8 9.9 8.3 8.8 9.6 8.1 6.7 5.6 5.2 3.1 3.3 4.7 4.2 3.2 2.7 2.5 2.4 2.6 1.4 1.3 2.5
7.7 3.0 1.2 0.6 1.5 2.1 2.8 3.0 3.0 3.7 4.3 5.5 4.5 3.8 4.0 6.6 7.2 7.9 7.1 7.2 7.4 8.4 7.0 7.2 6.3 7.0 7.2 6.8 6.1 5.8 5.1 4.6 5.2 6.9 7.7 7.2 7.1 8.2 8.9 10.1 9.3 7.8 4.6 4.2 3.7 3.7 4.1 3.4 3.2 3.0 3.1 2.9 2.5 3.1
2.8 1.3 1.8 1.4 2.0 1.8 2.8 2.4 3.5 4.5 3.9 3.2 4.3 4.3 6.0 5.6 7.4 8.0 7.4 7.6 6.0 4.9 3.9 3.4 3.0 3.4 3.8 4.3 4.6 4.2 3.7 4.4 4.6 4.3 3.8 3.8 5.0 7.0 6.7 6.4 5.4 4.5 4.7 4.7 5.0 4.2 4.0 4.0 3.6 3.7 3.6 3.5 3.4 2.7
2.4 1.8 2.5 3.2 2.4 2.7 4.7 4.6 4.9 3.4 2.9 3.1 3.9 4.2 5.0 5.0 7.7 7.2 6.6 5.0 4.6 4.0 3.2 2.4 2.6 1.2 1.2 1.0 1.0 1.9 3.1 3.8 3.4 4.3 3.3 4.2 5.6 5.0 4.6 4.4 3.8 4.1 4.4 4.9 4.7 4.9 5.0 4.0 3.2 3.1 3.6 5.1 4.1 3.8
1.5 1.7 2.1 2.3 2.3 2.9 5.0 2.6 3.5 2.5 1.2 1.2 1.0 1.4 1.8 5.5 9.2 7.2 4.9 3.5 3.2 3.5 3.4 2.8 2.2 1.8 1.8 1.6 1.3 1.4 2.7 3.1 3.3 4.5 4.6 3.4 4.2 4.0 3.8 3.7 3.6 3.2 4.1 4.5 6.0 5.7 6.2 5.9 5.6 5.6 5.5 4.8 4.8 6.0
0.6 1.0 1.1 2.0 2.8 4.0 2.9 2.2 2.1 1.7 1.1 0.8 0.5 1.2 2.5 4.0 5.5 3.7 2.9 3.5 2.4 1.7 1.6 1.7 1.8 2.1 1.8 2.1 3.0 3.2 3.1 2.0 1.9 2.5 2.9 3.5 3.0 3.2 3.1 2.8 3.4 3.6 3.9 4.5 4.2 5.4 6.8 7.3 7.3 7.7 6.7 5.6 4.8 5.2
0.7 1.8 1.6 1.2 2.0 2.0 3.1 4.6 3.1 2.0 1.8 1.7 2.5 1.8 3.2 3.3 3.3 3.7 2.7 2.6 2.3 1.7 1.6 2.1 2.3 2.6 3.0 4.0 4.1 4.3 3.9 2.9 2.3 2.5 2.3 2.5 3.0 3.3 3.1 2.5 2.6 3.0 3.1 3.4 3.5 4.3 5.1 6.5 8.2 7.4 6.4 6.3 6.3 5.5
1.4 1.7 1.4 2.1 2.1 2.4 1.9 3.2 1.4 1.8 1.9 2.7 3.7 2.7 2.8 2.8 4.9 5.6 2.4 2.5 4.7 3.8 3.4 4.1 4.2 4.1 4.4 4.4 4.6 3.7 2.5 3.0 2.6 2.7 2.7 2.8 2.9 2.9 2.4 2.6 2.6 2.6 2.5 2.5 2.8 3.3 3.5 4.5 5.2 6.7 7.3 7.4 8.0 7.6

GFSWCAN_prec_snow_288.txt.gz
Snowfall_Accumulation
0.0 0.0 0.0 0.0 0.0 0.0 0.0 0.0 0.0 0.0 0.0 0.0 0.0 0.0 0.0 0.0 0.0 0.0 0.0 0.0 0.5 26.8 10.9 0.1 0.0 3.8 8.1 9.6 18.8 13.2 18.1 16.4 25.1 34.1 26.5 20.5 13.0 5.3 6.1 5.1 3.1 4.5 16.5 20.6 23.5 25.6 14.4 0.4 0.1 1.5 1.1 0.2 1.1 7.5
0.0 0.0 0.0 0.0 0.0 0.0 0.0 0.0 0.0 0.0 0.0 0.0 0.0 0.0 0.0 0.0 0.0 0.0 2.0 0.0 0.0 22.7 17.1 0.0 0.0 0.0 0.0 0.0 7.9 14.3 18.0 11.4 13.6 25.4 20.4 17.5 17.1 13.2 4.1 8.4 6.2 9.5 6.5 14.2 14.6 14.2 2.0 0.3 0.6 0.4 0.4 0.5 2.9 7.5
0.0 0.0 0.0 0.0 0.0 0.0 0.0 0.0 0.0 0.0 0.0 0.0 0.0 0.0 0.0 0.0 0.0 0.0 0.0 0.0 0.0 30.1 12.5 3.7 6.4 0.0 0.0 0.0 0.0 17.1 6.4 3.6 11.2 9.6 18.3 13.7 15.5 6.8 9.8 7.6 7.6 5.7 2.9 9.4 4.3 1.2 1.3 0.6 0.0 0.0 0.2 0.2 0.4 4.5
0.0 0.0 0.0 0.0 0.0 0.0 0.0 0.0 0.0 0.0 0.0 0.0 0.0 0.0 0.0 0.0 0.0 0.0 0.0 0.0 3.4 18.8 31.8 9.9 0.0 3.2 0.0 0.0 0.0 0.0 0.0 0.0 1.3 3.0 22.5 19.4 14.1 3.7 4.2 3.5 6.1 9.8 8.4 7.4 4.4 1.0 0.9 0.3 0.3 0.2 0.2 0.2 0.5 0.3
0.0 0.0 0.0 0.0 0.0 0.0 0.0 0.0 0.0 0.0 0.0 0.0 0.0 0.0 0.0 0.0 0.0 0.0 0.0 0.0 0.0 7.3 20.6 11.4 0.0 0.0 2.7 0.0 0.0 0.0 0.0 2.1 6.7 17.6 24.9 15.1 4.7 7.0 3.8 5.6 7.8 3.2 11.4 11.1 9.5 2.4 3.7 0.7 0.7 0.4 0.8 1.0 1.7 1.2
0.0 0.0 0.0 0.0 0.0 0.0 0.0 0.0 0.0 0.0 0.0 0.0 0.0 0.0 0.0 0.0 0.0 0.0 51.3 0.0 0.0 0.0 22.0 17.2 2.4 2.3 4.9 2.0 0.6 0.7 1.3 3.7 6.5 14.5 13.8 4.9 0.4 7.5 12.9 7.5 1.0 1.7 6.5 8.5 11.2 4.8 3.6 3.7 2.2 0.9 2.2 3.4 4.4 2.7
0.0 0.0 0.0 0.0 0.0 0.0 0.0 0.0 0.0 0.0 0.0 0.0 0.0 0.0 0.0 0.0 0.0 27.6 22.4 2.7 0.0 0.0 35.2 20.1 12.3 1.8 3.1 3.4 3.6 6.0 3.2 9.3 8.4 10.9 8.8 4.0 3.9 8.8 9.5 1.5 0.2 0.0 2.1 4.7 6.7 8.8 8.4 9.4 11.2 7.0 2.6 2.8 3.3 1.5
0.0 0.0 0.0 0.0 0.0 0.0 0.0 0.0 0.0 0.0 0.0 0.0 0.0 0.0 0.0 0.0 0.0 10.7 0.0 0.0 0.0 2.9 17.0 21.5 14.6 15.3 1.7 7.4 10.9 3.8 12.7 11.6 12.8 9.7 5.5 3.4 4.0 7.3 10.2 0.0 0.0 0.1 0.3 0.8 0.8 1.3 3.9 5.0 5.1 4.5 1.8 0.6 0.1 0.0
0.0 0.0 0.0 0.0 0.0 0.0 0.0 0.0 0.0 0.0 0.0 0.0 0.0 0.0 0.0 0.0 37.5 0.0 0.0 0.0 0.0 3.7 24.9 11.8 10.6 20.0 2.0 7.4 7.4 8.8 6.5 20.8 8.9 15.3 6.3 5.5 7.0 9.5 1.3 0.2 0.7 0.1 0.1 0.1 0.0 0.0 0.2 1.0 0.2 0.0 0.3 0.1 1.1 1.2
0.0 0.0 0.0 0.0 0.0 0.0 0.0 0.0 0.0 0.0 0.0 0.0 0.0 43.8 60.5 4.8 0.0 0.0 7.2 24.4 29.5 24.6 15.1 10.8 1.3 11.1 2.6 5.6 16.5 15.9 16.1 13.1 16.2 5.4 2.5 9.0 4.0 1.2 0.9 0.7 0.3 0.4 0.1 0.1 0.9 1.5 0.9 0.8 0.3 0.1 0.0 1.0 0.2 0.1
0.0 0.0 0.0 0.0 0.0 0.0 0.0 0.0 0.0 0.0 0.0 0.0 30.2 28.0 0.0 0.0 0.3 14.6 34.7 26.5 18.6 16.2 3.6 1.8 0.1 2.5 0.3 8.2 13.1 8.4 18.9 11.7 15.8 5.6 5.0 7.7 5.0 5.3 4.5 4.3 2.4 1.8 0.6 0.5 0.4 0.3 0.0 0.1 2.3 1.8 1.0 0.3 0.1 0.1
0.0 0.0 0.0 0.0 0.0 0.0 0.0 0.0 0.0 0.0 0.0 0.0 0.1 0.0 0.4 13.0 27.0 28.0 23.6 14.1 4.1 2.8 4.3 2.8 7.0 8.1 4.5 1.3 16.3 21.7 15.1 15.3 8.5 5.2 14.5 8.4 7.0 3.3 2.2 4.0 1.7 0.1 0.0 0.0 0.0 0.0 0.3 0.2 0.1 0.3 1.0 0.9 1.0 3.9
0.0 0.0 0.0 0.0 0.0 0.0 0.0 0.0 0.0 0.0 0.0 0.1 12.7 18.6 22.4 22.7 28.9 19.9 9.9 6.4 4.8 2.4 3.2 2.7 11.6 5.5 9.9 4.9 19.8 19.2 24.0 13.4 5.4 24.8 13.0 8.7 4.7 5.3 4.0 1.1 0.4 0.6 0.8 0.5 0.9 0.1 0.0 0.0 0.9 2.0 3.3 7.0 6.5 6.1
0.0 0.0 0.0 0.0 0.0 0.0 0.2 0.0 0.0 0.0 1.8 10.8 20.1 24.8 20.2 14.7 10.6 7.0 4.2 3.4 3.2 2.7 3.7 5.5 10.0 12.4 7.3 13.2 13.9 20.7 15.4 14.0 18.2 13.1 10.0 11.7 9.3 5.3 4.3 4.2 3.8 3.1 3.7 3.3 1.4 1.1 2.3 1.9 3.2 4.7 4.8 7.8 7.0 7.0
0.2 0.1 0.0 0.0 0.0 0.0 0.0 0.0 0.0 0.0 12.7 19.1 11.7 11.6 8.7 8.8 5.5 4.0 2.7 1.8 2.0 3.6 8.1 11.2 12.2 11.8 15.7 22.4 10.7 10.3 15.5 13.5 10.4 14.0 15.4 13.1 8.8 6.9 6.1 7.2 7.7 9.8 10.2 9.5 11.8 12.5 11.5 9.7 7.9 10.7 10.9 9.9 8.0 8.6
0.3 0.2 0.0 0.0 0.0 0.0 0.0 0.0 3.1 10.0 18.8 11.0 9.7 8.8 7.0 5.1 7.1 5.8 5.0 4.6 2.5 4.4 8.7 13.8 17.9 15.7 14.7 13.0 12.4 11.9 12.4 14.8 17.7 14.8 11.9 6.7 5.5 6.0 7.0 7.8 8.7 10.0 11.3 11.5 11.5 12.9 14.4 15.4 15.6 16.7 16.6 14.5 13.5 11.6
1.1 1.7 0.0 0.1 0.0 2.0 3.9 7.8 8.2 22.0 15.3 8.5 10.3 7.5 7.8 9.5 6.9 6.5 7.4 7.9 5.1 12.1 16.5 16.0 18.9 12.3 9.1 8.9 8.3 9.9 15.5 17.8 12.1 9.3 6.8 5.5 7.5 6.6 7.0 6.5 7.2 7.5 9.8 10.8 11.0 12.1 13.3 14.7 14.1 12.5 12.9 14.8 12.6 12.3
1.1 0.1 0.3 0.1 0.4 8.1 10.8 4.7 14.6 10.8 9.4 7.6 10.3 11.0 7.5 8.7 9.6 8.7 7.3 7.3 8.6 10.0 9.5 15.7 8.4 6.6 7.6 7.3 11.9 15.6 15.6 11.8 7.4 6.6 7.5 8.4 8.2 8.9 7.5 5.9 7.1 7.3 8.3 10.7 10.1 11.3 11.3 9.6 8.4 9.9 10.2 10.9 9.8 10.3
1.4 0.6 0.0 0.3 2.1 12.2 17.8 10.2 6.0 8.5 7.7 7.5 8.4 7.9 6.7 9.8 12.1 9.6 9.2 8.3 6.5 6.0 10.9 8.1 9.0 5.6 8.2 10.3 13.4 11.0 9.2 8.1 9.2 10.1 10.9 11.1 10.4 8.9 8.1 7.5 6.8 9.3 9.1 10.7 9.6 8.9 9.9 9.1 7.5 7.6 8.1 7.7 7.1 8.4
0.0 0.7 0.0 0.8 4.0 25.4 17.9 9.5 2.0 4.1 5.9 6.3 6.4 6.3 6.3 10.0 9.7 8.2 6.2 5.1 5.5 9.2 10.2 9.8 9.5 11.2 12.7 13.2 14.4 13.1 10.9 9.2 6.9 7.6 10.1 12.5 13.6 10.0 9.7 9.7 9.9 9.6 8.5 8.7 9.3 9.7 9.2 8.8 8.5 5.4 4.7 6.3 7.3 7.3
1.0 0.0 0.2 1.9 7.6 16.8 12.6 7.1 7.9 3.1 4.5 5.2 5.4 2.5 7.0 3.8 4.6 4.6 3.8 1.7 4.7 8.3 8.9 11.0 12.8 12.5 12.7 14.2 12.6 9.7 9.1 7.2 8.0 6.8 7.5 9.1 10.9 7.8 8.5 9.1 7.3 6.3 4.7 6.1 6.9 9.5 8.1 6.7 6.6 5.9 4.4 4.2 5.5 6.8
1.3 1.1 5.0 4.8 16.3 15.4 13.6 3.9 3.0 4.7 4.5 4.2 3.5 3.2 4.7 5.1 3.2 3.8 1.9 3.9 8.3 12.0 11.1 11.2 11.1 10.3 9.1 10.0 11.4 10.1 11.4 7.3 6.6 6.6 7.3 6.0 7.4 6.8 7.7 8.7 5.9 5.4 4.8 4.9 5.0 6.5 5.8 4.5 4.1 4.3 4.9 4.5 3.5 3.7
2.9 5.1 13.2 10.8 12.6 9.1 4.0 1.9 4.5 5.5 5.8 5.5 3.8 3.7 4.2 3.5 3.3 0.9 4.5 6.7 11.0 13.0 11.0 8.8 9.5 9.8 9.7 11.1 8.4 7.9 9.5 7.6 8.7 10.5 9.9 9.1 8.3 7.8 6.6 7.0 6.0 5.1 5.4 5.6 3.9 4.2 3.9 3.5 3.8 4.4 4.4 3.7 2.8 2.7
4.0 12.5 13.0 11.3 8.6 4.5 2.4 3.2 4.1 4.4 4.3 3.8 4.3 3.6 4.4 3.1 0.2 4.4 6.5 9.2 11.1 7.5 6.6 7.8 7.2 8.7 9.1 7.7 8.7 9.0 11.2 7.8 8.4 9.9 10.4 7.6 6.3 7.4 5.5 5.8 3.9 3.9 4.1 4.1 3.2 3.6 4.2 3.6 2.1 2.8 2.8 3.3 2.5 2.4
23.9 12.5 7.8 6.6 5.2 4.9 3.4 1.6 1.8 3.9 5.9 4.8 7.0 7.3 8.3 5.0 7.8 7.1 8.0 10.8 7.3 6.6 6.4 7.0 6.8 6.9 6.5 8.0 8.7 9.1 8.8 9.1 9.8 9.6 11.0 9.2 7.6 6.6 5.9 4.8 4.4 4.6 3.4 3.9 4.9 5.1 4.3 3.6 3.5 2.9 1.8 1.3 1.3 2.1
11.0 4.2 6.3 4.8 5.3 5.5 5.9 4.7 4.6 3.7 3.8 3.8 5.1 3.1 2.6 4.6 5.4 9.9 10.4 11.0 8.1 8.2 8.5 8.5 8.4 6.0 6.3 7.1 6.7 5.2 6.6 7.4 7.6 6.8 9.9 8.3 8.8 9.8 8.3 6.8 5.7 5.2 3.3 3.8 5.1 4.6 3.6 3.1 3.2 3.2 3.5 1.8 1.3 2.5
7.7 3.0 1.2 0.6 1.5 2.1 2.8 3.0 3.0 3.7 4.3 5.5 4.5 3.8 4.0 6.6 7.2 7.9 7.1 7.2 7.4 8.4 7.0 7.2 6.3 7.0 7.2 6.8 6.1 5.8 5.1 4.6 5.2 6.9 7.7 7.2 7.1 8.2 9.1 10.4 9.6 8.0 4.6 4.4 4.0 3.8 4.8 4.1 4.0 3.7 3.5 3.0 2.7 3.2
2.8 1.3 1.8 1.4 2.0 1.8 2.8 2.4 3.5 4.5 3.9 3.2 4.3 4.3 6.0 5.6 7.4 8.0 7.4 7.6 6.0 4.9 3.9 3.4 3.0 3.4 3.8 4.3 4.6 4.2 3.7 4.4 4.6 4.3 3.8 3.8 5.1 7.0 6.8 6.5 5.5 4.5 4.8 4.7 5.1 4.5 4.4 4.6 4.1 4.1 3.9 3.6 3.5 2.7
2.4 1.8 2.5 3.2 2.4 2.7 4.7 4.6 4.9 3.4 2.9 3.1 3.9 4.2 5.0 5.0 7.7 7.2 6.6 5.0 4.6 4.0 3.2 2.4 2.6 1.2 1.2 1.0 1.0 1.9 3.1 3.8 3.4 4.3 3.3 4.2 5.6 5.0 4.6 4.4 3.8 4.2 4.5 5.1 4.8 4.9 5.3 4.2 3.4 3.2 3.9 5.2 4.1 3.8
1.5 1.7 2.1 2.3 2.3 2.9 5.0 2.6 3.5 2.5 1.2 1.2 1.0 1.4 1.8 5.5 9.2 7.2 4.9 3.5 3.2 3.5 3.4 2.8 2.2 1.8 1.8 1.6 1.3 1.5 2.7 3.1 3.3 4.6 4.6 3.4 4.2 4.0 3.8 3.8 3.7 3.4 4.3 4.7 6.4 6.0 6.4 6.1 5.7 5.7 5.6 4.8 4.8 6.0
0.6 1.0 1.1 2.0 2.8 4.1 2.9 2.2 2.1 1.7 1.1 0.8 0.5 1.2 2.5 4.0 5.5 3.7 2.9 3.5 2.4 1.7 1.6 1.7 1.8 2.1 1.8 2.1 3.0 3.2 3.1 2.1 2.0 2.5 2.9 3.5 3.1 3.2 3.2 2.8 3.5 3.9 4.3 5.0 4.9 6.2 7.4 7.7 7.7 7.8 6.8 5.6 4.8 5.2
0.7 1.8 1.6 1.2 2.0 2.0 3.1 4.6 3.1 2.0 1.8 1.7 2.5 1.8 3.2 3.3 3.3 3.7 2.7 2.6 2.3 1.7 1.6 2.1 2.3 2.6 3.0 4.0 4.1 4.3 3.9 2.9 2.3 2.5 2.3 2.5 3.1 3.4 3.2 2.5 2.8 3.2 3.3 3.8 3.9 4.7 5.3 6.6 8.3 7.4 6.4 6.3 6.3 5.5
1.4 1.7 1.4 2.1 2.1 2.4 1.9 3.2 1.4 1.8 1.9 2.7 3.7 2.7 2.8 2.8 4.9 5.6 2.4 2.5 4.7 3.8 3.4 4.1 4.2 4.1 4.4 4.4 4.6 3.7 2.5 3.0 2.6 2.7 2.7 2.8 2.9 2.9 2.4 2.6 2.7 2.8 2.7 2.7 3.0 3.4 3.5 4.5 5.2 6.7 7.3 7.4 8.0 7.6